NUSANTARA SATU

Last updated on Tue Sep 16 2025 00:02:49 GMT+0000 (Coordinated Universal Time)

1 44048U 19009A 25258.54210909 -.00000251 00000+0 00000+0 0 9998 2 44048 0.0322 124.2153 0004492 30.6916 181.0189 1.00272246 24010
UTC large
Height (km)
Speed (km/s)
/
Latitude / Longitude
Inclination (degrees)
Orbital Period (minutes)
Azimuth
Elevation
Range (km)
Doppler Factor

Next 0 passes for location: London (51.5072 / 0.1276)

Sorry there are no passes over London.